Regional Weather Roundup
Issued by NWS

Home | Current Version | Previous Version | Graphics & Text | Print | Product List | Glossary On
Versions: 1 2 3 4 5 6 7 8 9 10 11 12 13 14 15 16 17 18 19 20 21 22 23 24 25 26 27
000
ASUS45 KCYS 192110
RWRWY

WYOMING REGIONAL WEATHER ROUNDUP
NATIONAL WEATHER SERVICE CHEYENNE WY
200 PM MST FRI JAN 19 2018

NOTE:  "FAIR" INDICATES FEW OR NO CLOUDS BELOW 12,000 FEET
WITH NO SIGNIFICANT WEATHER AND/OR OBSTRUCTIONS TO VISIBILITY.

WYZ001-192200-
YELLOWSTONE NATIONAL PARK

CITY           SKY/WX    TMP DP  RH WIND       PRES   REMARKS
LK YELLOWSTONE   N/A     27  24  89 VRB5      29.72F WCI  22
W YELLOWSTONE  NOT AVBL

$$
WYZ002>013-054>058-071-098>099-192200-
NORTHERN WYOMING

CITY           SKY/WX    TMP DP  RH WIND       PRES   REMARKS
JACKSON        LGT SNOW  32  30  92 S13       29.75S FOG     WCI  22
CODY           PTSUNNY   38  34  85 S3        29.67F
GREYBULL       PTSUNNY   39  30  70 CALM      29.67S
WORLAND        FAIR      39  32  76 CALM      29.66F
SHERIDAN       CLOUDY    40  34  79 SE5       29.67F
BUFFALO        PTSUNNY   42  30  62 S5        29.67F
GILLETTE       FAIR      41  32  70 S5        29.66F
HULETT         CLOUDY    43  32  65 S3        29.67F
NEWCASTLE      FAIR      41  28  60 NW7       29.67F

$$
WYZ014>020-022>026-101>103-192200-
CENTRAL WYOMING

CITY           SKY/WX    TMP DP  RH WIND       PRES   REMARKS
BIG PINEY      CLOUDY    36  29  75 N12       29.74F WCI  28
PINEDALE       CLOUDY    32  28  86 NW12      29.75S WCI  23
DUBOIS         FLURRIES  34  27  75 NW15      29.68F WCI  24
LANDER         FAIR      48  30  49 W17G23    29.61F
RIVERTON       FAIR      46  28  49 SW18G24   29.63S
CASPER         FAIR      50  23  34 SW30G36   29.65F
DOUGLAS        FAIR      54  26  34 SW18G29   29.64F

$$
WYZ021-027>030-104>119-192200-
SOUTHERN WYOMING

CITY           SKY/WX    TMP DP  RH WIND       PRES   REMARKS
EVANSTON       CLOUDY    41  30  65 SW26G40   29.77F
FORT BRIDGER   FAIR      48  25  40 W36G45    29.78F
ROCK SPRINGS   FAIR      51  21  30 SW17      29.73F
DIXON            N/A     52  19  27 SW22G33   29.83F
RAWLINS        FAIR      46  20  35 SW22G29   29.77F
SARATOGA       FAIR      50  19  29 SW25G37   29.78F
LARAMIE        FAIR      55  18  23 W17G35    29.76F
CHEYENNE       FAIR      60  19  20 W21G36    29.73F
TORRINGTON     FAIR      48  31  51 NE6       29.65F

$$




USA.gov is the U.S. government's official web portal to all federal, state and local government web resources and services.